FW3054 Weather Reports


Display with metric or nautical units.
time (UTC)temp
F
wind
direction
speed
MPH
gust
MPH
rain 1hr
in
rain 24hr
in
rain mn
in
humidity
%
barometer
mb
20260505001520 68 0.0 1.0 0.00 0.00 0.00 47 1014.0
20260505000520 69 0.0 0.0 0.00 0.00 0.00 46 1013.8
20260504235521 70 0.0 1.0 0.00 0.00 0.00 44 1013.8
20260504234520 70 0.0 1.0 0.00 0.00 0.00 44 1013.6
20260504233520 71 0.0 3.0 0.00 0.00 0.00 44 1013.8
20260504232520 71 0.0 2.0 0.00 0.00 0.00 43 1013.7
20260504231520 71 0.0 4.0 0.00 0.00 0.00 43 1013.7
20260504230520 71 0.0 2.0 0.00 0.00 0.00 43 1013.6
20260504225520 71 0.0 3.0 0.00 0.00 0.00 42 1013.5
20260504224520 72 135 1.0 3.0 0.00 0.00 0.00 42 1013.6
20260504223520 72 135 1.0 4.0 0.00 0.00 0.00 41 1013.6
20260504222546 73 113 1.0 5.0 0.00 0.00 0.00 40 1013.7
20260504221520 73 338 1.0 2.0 0.00 0.00 0.00 39 1013.8
20260504220520 74 135 1.0 4.0 0.00 0.00 0.00 39 1013.8
20260504215520 74 135 1.0 3.0 0.00 0.00 0.00 39 1013.8
20260504214520 74 113 2.0 5.0 0.00 0.00 0.00 38 1013.8
20260504213521 75 135 1.0 4.0 0.00 0.00 0.00 36 1014.0
20260504212522 76 113 2.0 4.0 0.00 0.00 0.00 35 1014.2
20260504211637 76 0.0 2.0 0.00 0.00 0.00 34 1014.3
20260504210522 77 113 1.0 3.0 0.00 0.00 0.00 31 1014.2
20260504205522 78 113 1.0 2.0 0.00 0.00 0.00 31 1014.3
20260504204522 79 135 1.0 3.0 0.00 0.00 0.00 30 1014.4
20260504203522 79 135 1.0 3.0 0.00 0.00 0.00 29 1014.5
20260504202522 79 135 1.0 2.0 0.00 0.00 0.00 30 1014.8
20260504201522 79 135 1.0 3.0 0.00 0.00 0.00 29 1015.1
20260504200522 80 158 1.0 4.0 0.00 0.00 0.00 28 1015.2
20260504195612 81 203 1.0 1.0 0.00 0.00 0.00 28 1015.5
20260504194522 82 0.0 1.0 0.00 0.00 0.00 25 1015.6
20260504193522 81 0.0 1.0 0.00 0.00 0.00 30 1015.8
20260504192522 80 0.0 1.0 0.00 0.00 0.00 29 1016.1
20260504191547 80 0 1.0 3.0 0.00 0.00 0.00 32 1016.3
20260504190522 80 135 1.0 2.0 0.00 0.00 0.00 32 1016.5
20260504185547 79 45 1.0 2.0 0.00 0.00 0.00 32 1016.5
20260504184522 80 0.0 1.0 0.00 0.00 0.00 33 1016.7
20260504183522 79 203 1.0 3.0 0.00 0.00 0.00 34 1016.8
20260504182522 78 23 1.0 3.0 0.00 0.00 0.00 33 1016.7
20260504181522 77 0 1.0 3.0 0.00 0.00 0.00 35 1016.8
20260504180522 76 113 1.0 2.0 0.00 0.00 0.00 36 1016.9
20260504175522 75 0 1.0 3.0 0.00 0.00 0.00 35 1016.9
20260504174522 75 0.0 2.0 0.00 0.00 0.00 36 1017.0
20260504173522 74 0 2.0 3.0 0.00 0.00 0.00 37 1017.0
20260504172522 74 23 2.0 3.0 0.00 0.00 0.00 38 1017.3
20260504171547 73 0 2.0 3.0 0.00 0.00 0.00 39 1017.4
20260504170522 73 45 1.0 2.0 0.00 0.00 0.00 38 1017.7
20260504150522 61 0.0 1.0 0.00 0.00 0.00 48 1019.2
20260504140521 54 0.0 1.0 0.00 0.00 0.00 65 1019.3
20260504130521 47 0.0 0.0 0.00 0.00 0.00 75 1018.9
20260504110521 40 0.0 0.0 0.00 0.00 0.00 86 1017.7
20260504100521 39 0.0 1.0 0.00 0.00 0.00 88 1018.2
20260504081521 41 0.0 0.0 0.00 0.00 0.00 87 1018.6
20260504080521 41 0.0 0.0 0.00 0.00 0.00 87 1018.1
20260504050521 45 0.0 0.0 0.00 0.00 0.00 77 1018.4
20260504045521 46 0.0 0.0 0.00 0.00 0.00 77 1018.5
20260504044521 46 0.0 0.0 0.00 0.00 0.00 76 1018.5
20260504043546 46 0.0 0.0 0.00 0.00 0.00 76 1018.0
20260504042521 46 0.0 0.0 0.00 0.00 0.00 76 1017.8
20260504041521 46 0.0 1.0 0.00 0.00 0.00 77 1017.9
20260504040521 46 0.0 1.0 0.00 0.00 0.00 75 1017.9
20260504035521 47 0.0 1.0 0.00 0.00 0.00 75 1017.9
20260504034521 47 0.0 0.0 0.00 0.00 0.00 74 1017.8
20260504033521 48 0.0 1.0 0.00 0.00 0.00 72 1017.4
20260504032521 48 0.0 1.0 0.00 0.00 0.00 71 1017.3
20260504031521 49 0.0 1.0 0.00 0.00 0.00 70 1017.5
20260504030546 49 0.0 1.0 0.00 0.00 0.00 68 1017.4
20260504025521 50 0.0 1.0 0.00 0.00 0.00 67 1017.5
20260504024520 50 0.0 0.0 0.00 0.00 0.00 66 1017.8
20260504023521 50 0.0 1.0 0.00 0.00 0.00 66 1017.7
20260504022521 50 0.0 1.0 0.00 0.00 0.00 66 1017.6
20260504021520 51 0.0 0.0 0.00 0.00 0.00 65 1017.8
20260504020546 51 0.0 0.0 0.00 0.00 0.00 64 1017.6
20260504015520 52 0.0 0.0 0.00 0.00 0.00 62 1017.3
20260504014546 52 0.0 0.0 0.00 0.00 0.00 61 1017.3
20260504013546 52 0.0 1.0 0.00 0.00 0.00 60 1016.9
20260504012520 53 0.0 0.0 0.00 0.00 0.00 59 1016.9
20260504011521 53 0.0 1.0 0.00 0.00 0.00 59 1016.8
20260504010520 54 0.0 0.0 0.00 0.00 0.00 58 1016.6
20260504005521 54 0.0 0.0 0.00 0.00 0.00 57 1016.6
20260504004546 55 0.0 1.0 0.00 0.00 0.00 56 1016.5
20260504003520 56 0.0 0.0 0.00 0.00 0.00 53 1016.5
20260504002546 57 0.0 0.0 0.00 0.00 0.00 51 1016.4